User: anonymous   Login
Location: Unspecified
(0.0000°N, 0.0000°E)
Time: 21:20:53
(UTC+00:00)
Language:

STARLINK-33655 - Orbit

View from above orbital plane
View from above orbital plane
View from above satellite
View from above satellite

Ground track
Ground track

The orbit is defined by the following mean orbital elements,

1 63424U          26145.37664767 +.00000000 +00000-0 +94995-3 0 00005
2 63424  43.0008  34.3153 0001268 265.0002  95.0705 15.27588968    02
Epoch (UTC): 25 May 2026 09:02:22
Eccentricity: 0.0001268
inclination: 43.0008°
perigee height: 482 km
apogee height: 484 km
right ascension of ascending node: 34.3153°
argument of perigee: 265.0002°
revolutions per day: 15.27588968
mean anomaly at epoch: 95.0705°

The dashed part of the orbit path shows where the satellite is in the earth's shadow,  

DLR